KAITUO 1B
1 40912U 15049P   18055.74240049  .00001350  00000-0  68589-4 0  9993
2 40912  97.4516  64.6754 0016843  47.1659  38.8794 15.18467176134605
TIANWANG 1C (TW-1C)
1 40926U 15051B   18056.37787130  .00007026  00000-0  13989-3 0  9997
2 40926  97.1979  99.2952 0009655 336.6086  80.1909 15.47180069136017
TIANWANG 1B (TW-1B)
1 40927U 15051C   18056.58294525  .00006868  00000-0  14242-3 0  9998
2 40927  97.2076  99.3938 0009941 349.3056 137.9833 15.45996257135960
TIANWANG 1A (TW-1A)
1 40928U 15051D   18055.74598692 +.00002810 +00000-0 +77127-4 0  9993
2 40928 097.1990 091.9212 0012621 016.2473 095.1001 15.38016171135490
LAPAN A2
1 40931U 15052B   18054.92071322 +.00000689 +00000-0 +69550-5 0  9997
2 40931 005.9974 237.8064 0012558 205.7337 154.2135 14.76565890130232
LQSAT
1 40958U 15057A   18056.21929100  .00000050  00000-0  15611-4 0  9991
2 40958  97.9508 131.7679 0017830 340.8543  19.2012 14.73017523128364
CHUBUSAT 2
1 41338U 16012B   18056.04982170  .00000371  00000-0  22336-4 0  9991
2 41338  31.0035 306.0815 0013683  42.6752 317.4944 14.99924607110985
CHUBUSAT 3
1 41339U 16012C   18056.07772970  .00000353  00000-0  20866-4 0  9996
2 41339  31.0125 304.6651 0013415  49.9072 310.2724 15.00116193110978
OUFTI-1
1 41458U 16025C   18056.17050035  .00002380  00000-0  12782-3 0  9993
2 41458  98.1494 112.9778 0171379 163.0578 197.6491 15.04276133100596
E-STAR-2
1 41459U 16025D   18055.89228963 +.00002220 +00000-0 +11975-3 0  9995
2 41459 098.1518 112.5680 0172708 164.4720 196.1875 15.04046312100542
AAUSAT 4
1 41460U 16025E   18056.17198254  .00002555  00000-0  13633-3 0  9992
2 41460  98.1430 113.1989 0163994 160.2277 200.5449 15.05324017100633
NUSAT 1
1 41557U 16033B   18055.73860673 +.00001426 +00000-0 +54837-4 0  9998
2 41557 097.4426 140.1488 0013675 188.6108 171.4899 15.28019090096982
BEESAT 4
1 41619U 16040W   18055.90427194 +.00001319 +00000-0 +61220-4 0  9996
2 41619 097.4297 120.5472 0010106 262.5532 097.4555 15.21768616081013
PRATHAM
1 41783U 16059A   18056.17070145  .00000048  00000-0  18605-4 0  9995
2 41783  98.1329 119.4594 0034922  87.6739 272.8461 14.62902274 75582
ALSAT 1N
1 41789U 16059G   18056.15372899  .00000090  00000-0  26246-4 0  9997
2 41789  98.1329 120.4400 0029858  80.5694 279.8898 14.64129355 75629
NAYIF 1
1 42017U 17008BX  18055.90424041 +.00001456 +00000-0 +62947-4 0  9991
2 42017 097.4623 121.5772 0007861 062.7174 297.4863 15.24062701056964
LILACSAT-1
1 42725U 98067ME  18055.85339627 +.00021360 +00000-0 +22512-3 0  9999
2 42725 051.6359 208.8153 0004779 172.7935 187.3129 15.64191902042925
MAX VALIER SAT
1 42778U 17036P   18055.69611174  .00000967  00000-0  46551-4 0  9996
2 42778  97.4187 117.2061 0014422 103.1204 257.1642 15.21051986 37407
